User: anonymous   Login
Location: SAPM � Hemmingford
(45.0500°N, 73.5833°W)
Time: 15:19:56
(UTC-04:00)
Language:

Cosmos 1674 Rocket - Orbit

View from above orbital plane
View from above orbital plane
View from above satellite
View from above satellite

Ground track
Ground track

The orbit data is extracted from the following two-line orbital elements,

1 15945U 85069B   18171.04685505  .00000072  00000-0  57281-5 0  9990
2 15945  82.5269 148.5098 0020631 144.3685 215.8912 14.83974134775580
Epoch (UTC): 20 June 2018 01:07:28
Eccentricity: 0.0020631
inclination: 82.5269°
perigee height: 602 km
apogee height: 631 km
right ascension of ascending node: 148.5098°
argument of perigee: 144.3685°
revolutions per day: 14.83974134
mean anomaly at epoch: 215.8912°
orbit number at epoch: 77558

The dashed part of the orbit path shows where the satellite is in the earth's shadow,  

DLR